[[{"header":{"parameterUnit":"m.s-1","parameterCategory":1,"la1":30.2991,"la2":30.254,"lo1":-89.0895,"lo2":-89.0444,"dy":0.0017,"dx":0.0017,"nx":28,"ny":28,"refTime":"2025-05-14T21:00:00:Z","depth":0,"parameterNumber":2,"parameterNumberName":"U-component_of_WINDS"},"data":[0,0,0,0,0,0,0,0,0,0,0,0,0,0,0,0,0,0,0,0,0,0,0,0,0,0,0,0,0,0,0,0,0,0,0,0,0,0,0,0,0,0,0,0,0,0,0,0,0,0,0,0,0,0,0,0,0,0,-0.0257,-0.0258,0,-0.0292,-0.0293,-0.0293,-0.0337,-0.0338,-0.0338,-0.0339,-0.0374,-0.0375,-0.0375,0,0,0,0,0,0,0,0,0,0,0,0,0,-0.0229,-0.023,-0.0257,-0.0258,-0.0258,-0.0292,-0.0293,-0.0293,-0.0337,-0.0338,-0.0339,-0.0339,-0.0374,-0.0375,-0.0375,0,0,0,0,0,0,0,0,0,0,0,0,0,-0.0251,-0.023,-0.0257,-0.0284,-0.0287,-0.0292,-0.0293,-0.0293,-0.0337,-0.0338,-0.0339,-0.034,-0.0374,-0.0375,-0.0375,-0.0357,0,0,-0.0376,-0.0377,0,0,0,0,0,0,0,0,-0.0249,-0.0252,-0.028,-0.0282,-0.0285,-0.0311,-0.0296,-0.0314,-0.0336,-0.0318,-0.0339,-0.034,-0.0353,-0.0355,-0.0359,-0.0358,-0.036,-0.0376,-0.0377,-0.0377,-0.0377,0,0,0,0,0,0,0,-0.0248,-0.025,-0.0271,-0.028,-0.0284,-0.0295,-0.0299,-0.03,-0.0329,-0.0319,-0.0323,-0.0326,-0.0354,-0.0359,-0.036,-0.036,-0.0376,-0.0377,-0.0377,-0.0377,-0.0347,-0.0346,0,0,0,0,0,0,-0.0242,-0.0249,-0.027,-0.0272,-0.027,-0.0294,-0.0299,-0.0302,-0.0329,-0.0334,-0.0325,-0.0328,-0.0357,-0.036,-0.0362,-0.0342,-0.0377,-0.0377,-0.0377,-0.0348,-0.0347,-0.0346,0,0,0,0,0,0,-0.0241,-0.0244,-0.0269,-0.0261,-0.0265,-0.0294,-0.0297,-0.0302,-0.0306,-0.0333,-0.0339,-0.0324,-0.0358,-0.0361,-0.0358,-0.0344,-0.0377,-0.0378,-0.035,-0.0348,-0.0347,-0.0303,0,0,0,0,0,0,-0.024,-0.0243,-0.0236,-0.0261,-0.0266,-0.0264,-0.0296,-0.0302,-0.0307,-0.0311,-0.0334,-0.0338,-0.0359,-0.0357,-0.0358,-0.0345,-0.0378,-0.0351,-0.0349,-0.0347,-0.0305,-0.03,-0.0295,0,0,0,0,0,-0.0239,-0.0222,-0.0235,-0.0238,-0.0257,-0.0263,-0.0266,-0.029,-0.0306,-0.0299,-0.0317,-0.0338,-0.0346,-0.0356,-0.0358,-0.0345,-0.0352,-0.035,-0.0347,-0.0308,-0.0301,-0.0295,0,0,0,0,0,0,-0.0194,-0.0226,-0.0241,-0.0231,-0.0244,-0.027,-0.0262,-0.0282,-0.029,-0.0293,-0.0323,-0.0328,-0.0321,-0.0333,-0.0344,-0.0329,-0.0352,-0.035,-0.0321,-0.0315,-0.031,-0.0307,-0.0379,0,0,0,0,0,-0.0183,-0.0185,-0.0213,-0.0201,-0.0207,-0.0234,-0.0237,-0.0255,-0.0269,-0.0275,-0.0292,-0.0305,-0.0311,-0.0314,-0.0321,-0.0308,-0.0314,-0.03,-0.0295,-0.029,-0.0288,-0.0283,-0.0277,-0.0338,-0.0338,-0.0338,0,0,-0.016,-0.0178,-0.0177,-0.0193,-0.0205,-0.0206,-0.0238,-0.0238,-0.0239,-0.0275,-0.0273,-0.0286,-0.0303,-0.0295,-0.0293,-0.0305,-0.0273,-0.0287,-0.0284,-0.0284,-0.028,-0.0274,-0.0269,-0.0337,-0.0337,-0.0337,0,0,-0.0119,-0.0133,-0.0125,-0.0137,-0.0155,-0.0173,-0.0171,-0.0195,-0.0205,-0.0204,-0.0231,-0.0233,-0.0242,-0.0253,-0.026,-0.0225,-0.0245,-0.0227,-0.0199,-0.0193,-0.0189,-0.0184,-0.0172,-0.0167,-0.0224,-0.0224,-0.0224,0,-0.0088,-0.0091,-0.0119,-0.0117,-0.0123,-0.0157,-0.0149,-0.0159,-0.0179,-0.0182,-0.0196,-0.0209,-0.0222,-0.0218,-0.0209,-0.0214,-0.0213,-0.0223,-0.0187,-0.0183,-0.018,-0.0168,-0.0163,-0.0222,-0.0222,-0.0222,-0.0223,0,-0.0053,-0.0054,-0.0046,-0.0064,-0.007,-0.0065,-0.0092,-0.0095,-0.0113,-0.0129,-0.0128,-0.0146,-0.0157,-0.0158,-0.0175,-0.0156,-0.0163,-0.0182,-0.0205,-0.0171,-0.0161,-0.0156,-0.0218,-0.0219,-0.022,-0.0221,0,0,0.0018,-0.0017,-0.0013,-0.0022,-0.0045,-0.0047,-0.0045,-0.0056,-0.0058,-0.0071,-0.007,-0.0077,-0.0095,-0.0102,-0.0122,-0.0117,-0.0088,-0.0136,-0.0137,-0.0126,-0.0069,-0.0055,-0.0049,-0.0102,-0.0102,-0.0101,-0.0068,0,0.0055,0.0058,0.0032,0.0042,0.0039,0.0007,0.0009,-0.0005,-0.0021,-0.0026,-0.0044,-0.0049,-0.0072,-0.0077,-0.0074,-0.0092,-0.0077,-0.0095,-0.0102,-0.0101,-0.0095,-0.0044,-0.0028,0.0005,-0.0064,-0.0063,-0.0063,0,0.0099,0.0089,0.0098,0.0073,0.0071,0.0074,0.0061,0.0057,0.0039,0.0027,0.0018,-0.0005,-0.0005,-0.0028,-0.0028,-0.004,-0.0045,-0.0054,-0.0054,-0.0054,-0.0079,-0.0042,0.0014,0.002,-0.0057,-0.0057,-0.0057,0,0.015,0.0138,0.0141,0.0135,0.0106,0.0108,0.0096,0.0078,0.0072,0.0061,0.0057,0.0045,0.0039,0.0031,0.0006,-0.0009,0.0008,-0.0017,-0.0002,-0.0002,0.0004,0.0004,0.0061,-0.0,-0.0,-0.0001,-0.0001,0,0.0195,0.0202,0.0164,0.0166,0.0172,0.0143,0.015,0.0135,0.0118,0.0117,0.0087,0.0087,0.0053,0.0048,0.0029,0.0031,0.0028,0.0018,0.0013,0.0021,0.0023,0.0019,0.0016,0.0001,0.0,0.0,-0.0,0,0.0253,0.0228,0.023,0.0202,0.0195,0.0201,0.0177,0.0178,0.0159,0.0157,0.0155,0.0126,0.0119,0.0092,0.0079,0.0065,0.0074,0.0064,0.008,0.0077,0.0094,0.0093,0.0151,0.0157,0.0091,0.0092,0.0093,0,0.0284,0.0288,0.026,0.0257,0.0247,0.0242,0.0236,0.0206,0.0201,0.0181,0.0184,0.0174,0.0165,0.0154,0.0132,0.0121,0.011,0.0131,0.0108,0.0116,0.0111,0.0111,0.0111,0.0137,0.0138,0.0138,0.0139,0,0.0341,0.0328,0.032,0.0308,0.0302,0.0291,0.0278,0.0277,0.0244,0.0239,0.0231,0.0224,0.021,0.02,0.0185,0.0172,0.015,0.0146,0.0149,0.0158,0.0168,0.0163,0.0094,0.0145,0.0145,0.0144,0.0144,0.0144,0.0386,0.0388,0.0369,0.0362,0.0349,0.0337,0.0336,0.0317,0.031,0.0296,0.0279,0.0273,0.0254,0.0231,0.022,0.0214,0.0202,0.0207,0.0208,0.021,0.0214,0.0168,0.0212,0.0211,0.0211,0.0211,0.0211,0,0.0442,0.0428,0.0421,0.0404,0.0398,0.0377,0.0361,0.0357,0.0353,0.0337,0.0328,0.0318,0.0308,0.0285,0.0272,0.0272,0.0262,0.027,0.027,0.0268,0.0225,0.0224,0.0279,0.0279,0.0279,0.0279,0.0279,0.0279,0.0471,0.0473,0.0458,0.0453,0.0438,0.0433,0.0425,0.0414,0.0402,0.0392,0.0384,0.0368,0.0349,0.0335,0.0325,0.0318,0.0315,0.0327,0.0316,0.0277,0.0271,0.0265,0.0263,0.0326,0.0326,0.036,0.036,0.036]},{"header":{"parameterUnit":"m.s-1","parameterCategory":1,"la1":30.2991,"la2":30.254,"lo1":-89.0895,"lo2":-89.0444,"dy":0.0017,"dx":0.0017,"nx":28,"ny":28,"refTime":"2025-05-14T21:00:00:Z","depth":0,"parameterNumber":3,"parameterNumberName":"V-component_of_WINDS"},"data":[0,0,0,0,0,0,0,0,0,0,0,0,0,0,0,0,0,0,0,0,0,0,0,0,0,0,0,0,0,0,0,0,0,0,0,0,0,0,0,0,0,0,0,0,0,0,0,0,0,0,0,0,0,0,0,0,0,0,5.6287,5.6287,0,5.6266,5.6265,5.6265,5.6212,5.6211,5.621,5.6209,5.6187,5.6187,5.6188,0,0,0,0,0,0,0,0,0,0,0,0,0,5.628,5.6281,5.6287,5.6287,5.6286,5.6266,5.6265,5.6265,5.6212,5.6211,5.621,5.6208,5.6187,5.6187,5.6188,0,0,0,0,0,0,0,0,0,0,0,0,0,5.6274,5.6281,5.6287,5.6257,5.6255,5.6266,5.6265,5.6265,5.6213,5.6211,5.6209,5.6208,5.6187,5.6187,5.6188,5.6226,0,0,5.619,5.619,0,0,0,0,0,0,0,0,5.6274,5.6274,5.6262,5.626,5.6256,5.624,5.6255,5.6252,5.6213,5.6229,5.6209,5.6207,5.6206,5.6205,5.6205,5.6225,5.6224,5.619,5.6191,5.6191,5.6191,0,0,0,0,0,0,0,5.6275,5.6275,5.6278,5.6262,5.6258,5.6245,5.6242,5.6254,5.6227,5.6227,5.6223,5.6221,5.6204,5.6204,5.6204,5.6224,5.619,5.6191,5.6191,5.6192,5.6272,5.6274,0,0,0,0,0,0,5.6279,5.6275,5.6279,5.6278,5.6261,5.6246,5.6243,5.6247,5.6227,5.6222,5.6223,5.6219,5.6204,5.6203,5.6203,5.6245,5.6191,5.6192,5.6192,5.627,5.6272,5.6274,0,0,0,0,0,0,5.628,5.628,5.628,5.6275,5.6274,5.6248,5.6253,5.6247,5.6247,5.6223,5.6218,5.6228,5.6202,5.6202,5.622,5.6243,5.6192,5.6193,5.6268,5.6271,5.6273,5.6329,0,0,0,0,0,0,5.628,5.6281,5.6295,5.6276,5.6275,5.6298,5.6254,5.6248,5.6249,5.6243,5.6227,5.6223,5.6201,5.6219,5.6221,5.6243,5.6193,5.6266,5.627,5.6273,5.6325,5.6334,5.6341,0,0,0,0,0,5.628,5.6312,5.6296,5.6297,5.6292,5.63,5.6299,5.6274,5.6251,5.6265,5.6249,5.6223,5.6241,5.6222,5.6223,5.6246,5.6265,5.6269,5.6272,5.6322,5.6332,5.634,0,0,0,0,0,0,5.6335,5.6309,5.6291,5.6319,5.6312,5.6291,5.6308,5.6285,5.6285,5.628,5.6248,5.6245,5.6267,5.6258,5.6238,5.628,5.6248,5.6253,5.6286,5.6295,5.6302,5.6304,5.6194,0,0,0,0,0,5.635,5.6358,5.6335,5.6362,5.6359,5.6334,5.6337,5.6317,5.6309,5.6306,5.6292,5.6284,5.6288,5.6291,5.6293,5.6324,5.6319,5.634,5.6348,5.6354,5.6358,5.6372,5.6381,5.6287,5.6287,5.6287,0,0,5.6382,5.6369,5.6376,5.6373,5.6365,5.6374,5.6332,5.6344,5.6349,5.6307,5.6324,5.6313,5.6303,5.6327,5.6337,5.632,5.6383,5.6359,5.6364,5.6365,5.6377,5.6386,5.6394,5.629,5.6289,5.6289,0,0,5.6444,5.6436,5.6456,5.6449,5.6438,5.6421,5.6426,5.6408,5.6399,5.6415,5.6383,5.639,5.6397,5.639,5.6388,5.6446,5.6422,5.6448,5.6488,5.6502,5.6509,5.6516,5.6535,5.6543,5.6452,5.6452,5.6452,0,5.6486,5.6498,5.647,5.6483,5.6481,5.6443,5.6463,5.6458,5.6448,5.6448,5.6429,5.6436,5.6427,5.6449,5.6463,5.6462,5.6466,5.645,5.651,5.6517,5.6522,5.654,5.6548,5.6455,5.6455,5.6455,5.6454,0,5.6548,5.6557,5.6575,5.6565,5.6566,5.6583,5.6557,5.6561,5.6542,5.6526,5.6542,5.6529,5.6527,5.6531,5.6512,5.655,5.6539,5.6516,5.6483,5.6535,5.6551,5.6558,5.646,5.6459,5.6458,5.6457,0,0,5.6645,5.662,5.6626,5.6621,5.6605,5.6611,5.6626,5.6624,5.6627,5.6622,5.6632,5.6638,5.6616,5.6614,5.6594,5.6607,5.6652,5.6581,5.658,5.6594,5.6691,5.6708,5.6717,5.6636,5.6637,5.6638,5.6691,0,5.6703,5.6726,5.6701,5.6729,5.6736,5.6699,5.6711,5.6703,5.6688,5.6692,5.6676,5.6681,5.6652,5.665,5.6661,5.6644,5.6671,5.664,5.6644,5.6645,5.6648,5.6725,5.6744,5.6795,5.6698,5.6699,5.67,0,5.6774,5.6771,5.6799,5.678,5.6782,5.6794,5.6789,5.6793,5.6782,5.6771,5.6767,5.6743,5.6755,5.6723,5.6738,5.6718,5.6718,5.671,5.6711,5.671,5.6675,5.6726,5.681,5.6818,5.671,5.6709,5.6708,0,5.684,5.6844,5.6861,5.6857,5.6836,5.6845,5.6836,5.6824,5.6823,5.6819,5.6819,5.6816,5.6815,5.6813,5.6788,5.6767,5.6806,5.6772,5.6796,5.6797,5.6806,5.6805,5.6891,5.6807,5.6807,5.6807,5.6807,0,5.6907,5.6926,5.689,5.6901,5.692,5.689,5.691,5.6898,5.6887,5.6894,5.6862,5.6869,5.6837,5.684,5.6821,5.6836,5.6835,5.6826,5.6821,5.6828,5.683,5.6828,5.6823,5.6809,5.6809,5.6808,5.6808,0,5.6985,5.6962,5.6978,5.6956,5.6951,5.6966,5.6947,5.6956,5.6939,5.6948,5.6948,5.6922,5.6924,5.69,5.6897,5.6884,5.6907,5.6896,5.6911,5.6907,5.6932,5.693,5.7019,5.7029,5.694,5.6941,5.6942,0,5.7029,5.7043,5.7022,5.7024,5.7017,5.7021,5.7021,5.6992,5.6992,5.698,5.699,5.6989,5.6987,5.6992,5.6973,5.697,5.6958,5.6989,5.6958,5.6965,5.6957,5.6957,5.6957,5.6996,5.6997,5.6998,5.6999,0,5.7109,5.7097,5.7097,5.7094,5.7094,5.7089,5.7083,5.7086,5.7055,5.7057,5.7059,5.7057,5.7054,5.7053,5.7047,5.7037,5.7013,5.7009,5.7014,5.7022,5.703,5.7025,5.6929,5.7007,5.7006,5.7006,5.7005,5.7005,5.7171,5.718,5.7167,5.7168,5.716,5.7154,5.7161,5.7145,5.7146,5.7141,5.7123,5.7128,5.7115,5.7104,5.7096,5.7099,5.7083,5.7091,5.7093,5.7095,5.7099,5.703,5.7098,5.7097,5.7097,5.7097,5.7097,0,5.7248,5.7238,5.7239,5.7231,5.7231,5.7208,5.7199,5.7201,5.7205,5.7195,5.7194,5.7195,5.7194,5.7174,5.717,5.7176,5.7165,5.7176,5.7175,5.7173,5.7114,5.7109,5.7185,5.7185,5.7185,5.7185,5.7185,5.7185,5.7289,5.7304,5.7289,5.7299,5.7288,5.7292,5.7289,5.7283,5.7275,5.7277,5.7276,5.7263,5.7249,5.7244,5.7241,5.7235,5.7235,5.725,5.7241,5.7186,5.7177,5.7169,5.7165,5.7251,5.7251,5.7299,5.73,5.73]}]]